Regional Weather Roundup
Issued by NWS

Home | Current Version | Previous Version | Graphics & Text | Print | Product List | Glossary Off
Versions: 1 2 3 4 5 6 7 8 9 10 11 12 13 14 15 16 17 18 19 20 21 22 23 24 25 26 27 28 29 30 31 32 33 34 35 36 37 38 39 40 41 42 43 44 45 46 47 48 49 50

127
ASUS43 KMKX 020100
RWRWI

WISCONSIN REGIONAL WEATHER ROUNDUP
NATIONAL WEATHER SERVICE MILWAUKEE/SULLIVAN WI
800 PM CDT SUN MAY 01 2016

NOTE: "FAIR" INDICATES FEW OR NO CLOUDS BELOW 12,000 FEET WITH NO
SIGNIFICANT WEATHER AND/OR OBSTRUCTIONS TO VISIBILITY.

WIZ001-002-006>008-014>016-023>028-020200-
NORTHWEST WISCONSIN

CITY           SKY/WX    TMP DP  RH WIND       PRES   REMARKS
SUPERIOR ARPT  CLEAR     42  34  73 NE5       30.18S
ASHLAND        CLEAR     44  35  70 E7        30.18S
HAYWARD        CLEAR     50  33  52 NE12      30.14R
SIREN          CLEAR     57  33  39 NE9       30.12R
CUMBERLAND     CLEAR     55  32  41 N7        30.10R
RICE LAKE      CLEAR     59  33  37 N13       30.10R
CHETEK         PTCLDY    57  39  50 N6        30.08S
LADYSMITH      CLEAR     57  35  44 N7        30.11R
EAU CLAIRE     NOT AVBL
MENOMONIE      CLOUDY    61  29  30 N5        30.07S
NEW RICHMOND   CLEAR     59  32  36 N5        30.10R
OSCEOLA        CLEAR     60  30  32 N8        30.13R
$$

WIZ003>005-009-010-017-018-020200-
NORTH CENTRAL WISCONSIN

CITY           SKY/WX    TMP DP  RH WIND       PRES   REMARKS
MANITOWISH WTR CLEAR     53  34  48 N9        30.11R
ARBOR VITAE    PTCLDY    57  34  42 NE5       30.10R
WOODRUFF       PTCLDY    57  34  42 NE5       30.10R
RHINELANDER    CLOUDY    54  30  40 NE3       30.09R
EAGLE RIVER    MOCLDY    54  29  37 NE7       30.09R
LAND O LAKES   PTCLDY    54  30  39 N8        30.12R
PHILLIPS       PTCLDY    56  37  47 N10       30.09R
TOMAHAWK       CLOUDY    55  28  35 CALM      30.09R
MEDFORD        CLOUDY    56  31  38 SE3       30.07R
MERRILL        MOCLDY    56  32  40 SE5       30.08R
$$

WIZ029-030-035-036-043>047-020200-
CENTRAL WISCONSIN

CITY           SKY/WX    TMP DP  RH WIND       PRES   REMARKS
WAUSAU         MOCLDY    57  32  38 SE7       30.07R
MOSINEE        NOT AVBL
MARSHFIELD     CLOUDY    54  34  46 SE8       30.07R
STEVENS POINT  CLOUDY    52  33  47 E13       30.08R
WAUPACA        PTCLDY    55  36  48 NE9G16    30.09R
WAUTOMA        PTCLDY    53  37  54 NE9       30.08R
WISC RAPIDS    CLOUDY    54  33  45 E7        30.09R
CAMP DOUGLAS   NOT AVBL
$$

WIZ011>013-019>022-031-037>040-048>050-020200-
NORTHEAST WISCONSIN

CITY           SKY/WX    TMP DP  RH WIND       PRES   REMARKS
ANTIGO         MOCLDY    51  34  51 E9        30.09R
SHAWANO        CLEAR     54  37  52 E8        30.10R
OCONTO         CLEAR     51  38  62 CALM      30.10S
STURGEON BAY   CLEAR     50  36  57 NE3       30.12S
GREEN BAY      MOCLDY    52  40  63 NE9       30.09S
MANITOWOC      CLOUDY    48  37  66 MISG      30.08S
APPLETON       PTCLDY    52  37  58 E12       30.07R
CLINTONVILLE   PTCLDY    52  34  50 E10       30.09R
OSHKOSH        CLOUDY    50  40  68 NE12      30.07R
$$

WIZ032>034-041-042-053>061-020200-
SOUTHWEST WISCONSIN

CITY           SKY/WX    TMP DP  RH WIND       PRES   REMARKS
LA CROSSE      CLOUDY    57  36  45 CALM      30.07R
SPARTA         CLOUDY    57  35  43 E6        30.08R
VIROQUA        CLOUDY    49  45  85 S9        30.07R
BOSCOBEL       LGT RAIN  48  46  93 S3        30.08R FOG
PRAIRIE DU CHI LGT RAIN  49  45  86 N7        30.09R
PLATTEVILLE    CLOUDY    49  47  93 N10       30.03S
$$

WIZ056-057-062-063-064-067-068-020200-
SOUTH CENTRAL WISCONSIN

CITY           SKY/WX    TMP DP  RH WIND       PRES   REMARKS
REEDSBURG      CLOUDY    53  39  60 NE6       30.06R
BARABOO/DELLS  CLOUDY    51  37  58 NE3       30.06R
LONE ROCK      NOT AVBL
MINERAL POINT  LGT RAIN  52  45  76 N10       30.04R
MADISON        CLOUDY    51  41  68 NE10      30.03R
MIDDLETON      CLOUDY    53  43  68 NE8       30.04R
WATERTOWN      CLOUDY    49  42  78 NE13G22   30.03R
MONROE         CLOUDY    50  43  76 NE10      29.99F
JANESVILLE     DRIZZLE   50  46  87 NE9       30.00S
$$

WIZ051-052-058>065-066-070>072-020200-
SOUTHEAST WISCONSIN

CITY           SKY/WX    TMP DP  RH WIND       PRES   REMARKS
MILWAUKEE      DRZL/FOG  43  42  97 NE14      30.02S VSB 1/2
WAUKESHA       MOCLDY    46  43  87 E12       30.03S
MILWAUKEE/TIMM CLOUDY    45  43  93 NE8       30.04R
RACINE         LGT RAIN  44  42  93 NE14      30.01F FOG
BURLINGTON     CLOUDY    46  42  84 NE10      30.00S
KENOSHA        CLOUDY    45  43  93 N10       29.99F
FOND DU LAC    CLOUDY    50  42  74 NE12      30.06S
SHEBOYGAN      CLOUDY    47  38  71 NE14      30.06S
WEST BEND      CLOUDY    46  41  81 NE13      30.04S
JUNEAU         CLOUDY    49  41  73 NE9       30.05R
$$

LSZ147-162-020200-
LAKE SUPERIOR

STATION/POSITION TIME  TEMP    WIND        PRES    WAVE
                       AIR SEA DIR/SP/G            HT/PER
                 (UTC) (F)     (DEG/KT/KT) (MB)    (FT/S)
W MID LAKE BUOY  2350   40 37   60/  6/  8 1022.2F   2/ 5
DEVILS ISLAND    0000   38      30/  4/  5 1022.8F
SAXON HARBOR     0000   40     340/  4/  5 1021.3F
$$

LMZ867-665-643>646-020200-
LAKE MICHIGAN

STATION/POSITION TIME  TEMP    WIND        PRES    WAVE
                       AIR SEA DIR/SP/G            HT/PER
                 (UTC) (F)     (DEG/KT/KT) (MB)    (FT/S)
CHAMBERS ISLAND  0000   49     350/  3/  4 1019.6R
N MID LAKE BUOY  2350   42 39  330/  8/  8 1019.1F   0
NORTHPORT PIER   0000   50      CALM  /  2 1019.3R
KEWAUNEE LAKESHO 0000           20/ 10/ 13 1018.3F
SHEBOYGAN LAKESH 0000   42      20/ 15/ 18 1018.8F
PORT WASHINGTON  0040   46      20/  8/ 14 1017.9F
S MID LAKE BUOY  2350   42 40   30/ 10/ 12 1015.8F   2/ 4
KENOSHA   LAKESH 0000   45      10/ 15/ 17 1015.9S
$$

TC  - TEMPERATURE IN CELSIUS
VSB - VISIBILITY IN STATUTE MILES
WCI - WIND CHILL INDEX
HX  - HEAT INDEX





USA.gov is the U.S. government's official web portal to all federal, state and local government web resources and services.